Location: Brahman Valley
(40.6513°N, 111.8855°W)
Time: 22:27:39
(UTC+00:00)

Vanguard 2 - Pass Details

Date: 14 May 2021
Orbit: 552 x 2937 km, 32.9° (Epoch: 14 June)

Event Time Altitude Azimuth Distance (km) Brightness Sun altitude
Rises 14:22:24 0° 256° (WSW) 4,705 11.0 23.0°
Reaches altitude 10° 14:25:05 10° 253° (WSW) 3,992 10.7 23.5°
Maximum altitude 14:36:18 63° 176° (S) 2,556 10.6 25.6°
Drops below altitude 10° 14:52:59 10° 101° (E) 5,713 13.5 28.8°
Sets 14:57:42 0° 99° (E) 6,788 13.5 29.7°
